Location: *
(46.1333°S, 161.2167°W)
Time: 04:35:51
(UTC+00:00)

Cosmos 2228 - Pass Details

Date: 15 July 2020
Orbit: 590 x 617 km, 82.5° (Epoch: 10 August)

Event Time Altitude Azimuth Distance (km) Brightness Sun altitude
Rises 17:43:39 0° 202° (SSW) 2,883 6.1 -6.6°
Reaches altitude 10° 17:46:16 10° 217° (SW) 1,966 5.1 -6.2°
Maximum altitude 17:49:35 22° 267° (W) 1,341 4.3 -5.7°
Drops below altitude 10° 17:52:52 10° 317° (NW) 1,937 5.4 -5.2°
Sets 17:55:26 0° 332° (NNW) 2,827 6.4 -4.8°
